Location: Shannon
(40.5500°S, 175.4167°E)
Time: 21:59:13
(UTC+00:00)

GEOS 3 Rocket - Pass Details

Date: 17 November 2025
Orbit: 771 x 842 km, 115.0° (Epoch: 06 December)

Event Time Altitude Azimuth Distance (km) Brightness Sun altitude
Rises 14:07:51 0° 143° (SE) 3,285 8.2 -23.7°
Reaches altitude 10° 14:10:10 10° 140° (SE) 2,347 7.1 -23.4°
Maximum altitude 14:15:13 68° 56° (NE) 837 3.6 -22.9°
Enters shadow 14:16:19 52° 358° (N) 962 3.6 -22.8°
